Location: Augustenthal
(51.7167°N, 10.2833°E)
Time: 14:02:29
(UTC+00:00)

Cosmos 1455 Rocket - Pass Details

Date: 18 May 2021
Orbit: 605 x 629 km, 82.5° (Epoch: 19 June)

Event Time Altitude Azimuth Distance (km) Brightness Sun altitude
Rises 23:44:19 0° 353° (N) 2,879 8.0 -18.2°
Reaches altitude 10° 23:46:38 10° 0° (N) 1,972 6.9 -18.2°
Maximum altitude 23:50:49 44° 74° (ENE) 848 3.9 -18.1°
Enters shadow 23:53:17 22° 136° (SE) 1,352 4.5 -18.0°
